Weather History for West Palm Beach, FL

Change the Weather History Date:

Tuesday, September 24, 2013

  Actual Average Record
Temperature  
Mean Temperature 82 °F 81 °F  
Max Temperature 89 °F 88 °F 93 °F (1957)
Min Temperature 74 °F 75 °F 65 °F (1925)
Degree Days  
Heating Degree Days 0 0  
Month to date heating degree days 0 0  
Since 1 July heating degree days 0 0  
Cooling Degree Days 17 16  
Month to date cooling degree days 403 405  
Year to date cooling degree days 3274 3111  
Growing Degree Days 32 (Base 50)    
Moisture  
Dew Point 74 °F    
Average Humidity 81    
Maximum Humidity 90    
Minimum Humidity 72    
Precipitation  
Precipitation 1.14 in 0.27 in 10.40 in (1894)
Month to date precipitation 8.33 6.81  
Year to date precipitation 55.95 47.53  
Snow  
Snow 0.00 in - - ()
Month to date snowfall 0.0  
Since 1 July snowfall 0.0  
Since 1 September snowfall 0.0  
Snow Depth 0.00 in    
Sea Level Pressure  
Sea Level Pressure 29.93 in    
Wind  
Wind Speed 5 mph (SSW)    
Max Wind Speed 20 mph    
Max Gust Speed 25 mph    
Visibility 9 miles    
Events Rain , Thunderstorm    
T = Trace of Precipitation, MM = Missing Value Source: NWS Daily Summary

Daily Weather History Graph

Daily Weather History Graph

Search for Another Location

Airport:

Trip Planner

Search our weather history database for the weather conditions in past years. The results will help you decide how hot, cold, wet, or windy it might be!

Date:

Astronomy

Sep. 24, 2013 Rise Set
Actual Time 7:09 AM EDT 7:14 PM EDT
Civil Twilight 6:46 AM EDT 7:37 PM EDT
Nautical Twilight 6:19 AM EDT 8:04 PM EDT
Astronomical Twilight 5:52 AM EDT 8:31 PM EDT
Moon 10:58 PM EDT 11:55 AM EDT
Length of Visible Light 12h 50m
Length of Day
12h 04m
Waning Gibbous, 73% of the Moon is Illuminated
Sep 24
Waning Gibbous
Sep 26
Last Quarter
Oct 4
New
Oct 11
First Quarter
Oct 18
Full

Hourly Weather History & Observations

Time (EDT) Temp. Heat Index Dew Point Humidity Pressure Visibility Wind Dir Wind Speed Gust Speed Precip Events Conditions
12:53 AM 79.5 °F - 73.2 °F 81% 29.96 in 10.0 mi East 5.8 mph - N/A   Mostly Cloudy
1:00 AM 78.8 °F - 73.4 °F 83% 29.96 in 10.0 mi East 3.5 mph - N/A   Mostly Cloudy
1:33 AM 78.8 °F - 73.4 °F 83% 29.95 in 10.0 mi Calm Calm - N/A Thunderstorm Thunderstorm
1:53 AM 78.6 °F - 73.9 °F 85% 29.95 in 10.0 mi Calm Calm - N/A Thunderstorm Thunderstorm
2:03 AM 78.8 °F - 78.8 °F 100% 29.97 in 0.8 mi SW 13.8 mph 21.9 mph 0.00 in Rain , Thunderstorm Heavy Thunderstorms and Rain
2:07 AM 78.8 °F - 71.6 °F 78% 29.96 in 4.0 mi Calm Calm - 0.13 in Rain , Thunderstorm Thunderstorms and Rain
2:41 AM 78.8 °F - 71.6 °F 78% 29.99 in 1.5 mi South 15.0 mph - 0.49 in Rain , Thunderstorm Heavy Thunderstorms and Rain
2:43 AM 78.8 °F - 71.6 °F 78% 29.99 in 0.5 mi SSE 15.0 mph - 0.56 in Rain , Thunderstorm Heavy Thunderstorms and Rain
2:53 AM 78.3 °F - 72.1 °F 81% 29.98 in 2.0 mi SE 12.7 mph - 0.97 in Rain , Thunderstorm Heavy Thunderstorms and Rain
3:06 AM 77.0 °F - 71.6 °F 83% 29.97 in 8.0 mi SE 6.9 mph - 0.03 in Rain , Thunderstorm Light Thunderstorms and Rain
3:24 AM 77.0 °F - 73.4 °F 89% 29.96 in 10.0 mi East 8.1 mph - 0.04 in Rain , Thunderstorm Light Thunderstorms and Rain
3:43 AM 77.0 °F - 73.4 °F 89% 29.95 in 10.0 mi ESE 9.2 mph - 0.04 in   Mostly Cloudy
3:53 AM 76.5 °F - 72.5 °F 87% 29.96 in 10.0 mi SE 6.9 mph - 0.04 in   Mostly Cloudy
4:53 AM 78.6 °F - 72.7 °F 82% 29.92 in 10.0 mi Calm Calm - 0.00 in   Mostly Cloudy
5:53 AM 77.7 °F - 73.6 °F 87% 29.93 in 10.0 mi South 3.5 mph - N/A   Overcast
6:53 AM 76.8 °F - 73.2 °F 89% 29.93 in 10.0 mi Calm Calm - N/A   Mostly Cloudy
7:53 AM 77.9 °F - 73.6 °F 86% 29.94 in 10.0 mi Calm Calm - N/A   Mostly Cloudy
8:53 AM 80.1 °F 84.5 °F 73.9 °F 81% 29.96 in 10.0 mi Calm Calm - N/A   Mostly Cloudy
9:53 AM 82.9 °F 91.8 °F 77.0 °F 82% 29.96 in 10.0 mi South 6.9 mph - N/A   Mostly Cloudy
10:53 AM 84.9 °F 95.3 °F 77.0 °F 77% 29.96 in 10.0 mi SSW 8.1 mph - N/A   Mostly Cloudy
11:53 AM 87.1 °F 98.8 °F 77.0 °F 72% 29.95 in 10.0 mi SSW 10.4 mph - N/A   Mostly Cloudy
12:33 PM 87.8 °F 97.6 °F 75.2 °F 66% 29.93 in 10.0 mi SSW 10.4 mph - 0.00 in Rain Light Rain
12:49 PM - - - N/A% 29.93 in 10.0 mi WSW 10.4 mph - 0.00 in Rain , Thunderstorm Light Thunderstorms and Rain
12:53 PM 85.6 °F 97.7 °F 77.9 °F 78% 29.94 in 10.0 mi West 10.4 mph - 0.00 in Rain , Thunderstorm Light Thunderstorms and Rain
1:30 PM 84.2 °F 94.1 °F 77.0 °F 79% 29.91 in 10.0 mi WNW 4.6 mph - 0.00 in Thunderstorm Thunderstorm
1:53 PM 84.7 °F 90.7 °F 72.3 °F 66% 29.90 in 10.0 mi NW 9.2 mph - 0.00 in Thunderstorm Thunderstorm
2:53 PM 79.3 °F - 75.6 °F 88% 29.90 in 10.0 mi SE 5.8 mph - 0.11 in Rain , Thunderstorm Light Thunderstorms and Rain
3:15 PM 80.6 °F 86.2 °F 75.2 °F 84% 29.90 in 10.0 mi Calm Calm - 0.00 in   Mostly Cloudy
3:53 PM 82.0 °F 88.9 °F 75.4 °F 80% 29.89 in 10.0 mi East 3.5 mph - 0.00 in   Mostly Cloudy
4:53 PM 82.9 °F 89.4 °F 73.9 °F 74% 29.88 in 10.0 mi North 3.5 mph - 0.00 in Rain Light Rain
5:53 PM 80.1 °F 85.4 °F 75.9 °F 87% 29.88 in 10.0 mi NW 4.6 mph - 0.02 in   Overcast
6:53 PM 78.1 °F - 73.0 °F 84% 29.88 in 10.0 mi West 8.1 mph - 0.00 in Rain Light Rain
7:53 PM 75.0 °F - 70.0 °F 84% 29.90 in 10.0 mi WSW 4.6 mph - 0.00 in   Overcast
8:53 PM 75.9 °F - 70.0 °F 82% 29.91 in 10.0 mi West 3.5 mph - N/A   Mostly Cloudy
9:53 PM 75.0 °F - 70.0 °F 84% 29.91 in 10.0 mi SW 4.6 mph - N/A   Mostly Cloudy
10:53 PM 75.0 °F - 70.0 °F 84% 29.91 in 10.0 mi SW 5.8 mph - N/A   Scattered Clouds
11:53 PM 76.1 °F - 70.5 °F 83% 29.90 in 10.0 mi SW 5.8 mph - N/A   Mostly Cloudy